Regional Weather Roundup
Issued by NWS

Home | Current Version | Previous Version | Graphics & Text | Print | Product List | Glossary On
Versions: 1 2 3 4 5 6 7 8 9 10 11 12 13 14 15 16 17 18 19 20 21 22 23 24 25 26 27 28 29 30 31 32 33 34 35 36 37 38 39 40 41 42 43 44 45 46 47 48 49 50
000
ASUS43 KFSD 141202
RWRSD

WEATHER ROUNDUP FOR SOUTH DAKOTA
NATIONAL WEATHER SERVICE SIOUX FALLS SD
700 AM CDT MON JUL 14 2014

NOTE: "FAIR" INDICATES FEW OR NO CLOUDS BELOW 12,000 FEET WITH NO
SIGNIFICANT WEATHER AND/OR OBSTRUCTIONS TO VISIBILITY.


SDZ001>005-009-010-012>017-141300-
NORTHWEST AND NORTH CENTRAL SOUTH DAKOTA

CITY           SKY/WX    TMP DP  RH WIND       PRES   REMARKS
BUFFALO          N/A     49  42  77 N10       30.23R
FAITH            N/A     49  44  83 NW9       30.24R
MOBRIDGE       CLEAR     53  48  83 N10       30.17R
$$

SDZ012>016-024>037-041>051-057-063-072>074-141300-
SOUTHWEST AND SOUTH CENTRAL SOUTH DAKOTA

CITY           SKY/WX    TMP DP  RH WIND       PRES   REMARKS
RAPID CTY ARPT PTCLDY    53  44  71 NW6       30.27R
PIERRE         CLEAR     54  48  80 N10       30.16R
CUSTER         CLEAR     49  44  83 N6        30.32R
PHILIP         PTCLDY    54  45  71 N12       30.21R
PINE RIDGE     CLEAR     52  51  97 CALM      30.23R FOG
WINNER         FAIR      54  46  74 NW7       30.16R
$$

SDZ004>011-016>023-039-040-141300-
NORTHEAST SOUTH DAKOTA

CITY           SKY/WX    TMP DP  RH WIND       PRES   REMARKS
ABERDEEN       PTCLDY    52  47  83 NW12      30.11R
WATERTOWN      CLEAR     55  48  77 NW16      30.05R
SISSETON         N/A     56  49  77 N17G23    30.03R
$$

SDZ017-020-022-023-036>040-048>070-141300-
SOUTHEAST SOUTH DAKOTA

CITY           SKY/WX    TMP DP  RH WIND       PRES   REMARKS
SIOUX FALLS    PTCLDY    55  49  80 NW9       30.05R
HURON          CLEAR     53  49  86 NW10      30.10R
CHAMBERLAIN    CLEAR     56  47  71 N14       30.14R
MITCHELL       CLEAR     54  48  80 NW8       30.10R
YANKTON        CLEAR     55  46  71 NW10      30.08R
$$

ABBREVIATIONS USED IN REMARKS
   TC - TEMPERATURE IN CELSIUS
  WCI - WIND CHILL INDEX
   HX - HEAT INDEX
  VSB - VISIBILITY



USA.gov is the U.S. government's official web portal to all federal, state and local government web resources and services.